Starlink 5853

operational
NORAD ID: 56881 Int'l Des: 2023-083 Owner: SPXS Country: US Constellation: starlink
LEOCIRCULAR

Über Starlink 5853

Beschreibung wird geladen...

Live-Position

3D-Globus wird geladen...

Nächste Überflüge

Höhenverlauf

Altitude vs Time

uPlot chart will show altitude changes over time

Zweizeiliger Elementsatz

1 56881U 23083F 26035.62909924 -.00000258 00000-0 -40341-5 0 9995
2 56881 43.0022 261.7315 0001071 262.1201 97.9520 15.02530036146692
Epoch: 4. Feb. 2026 • Age: 9 hours

Aktueller Status

Höhe 564.2 km
Geschwindigkeit 7.58 km/s
Subsatellitenpunkt -23.10°S, 89.62°E
Startdatum 12. Juni 2023
Alter 2.6 years
Typ internet

Technische Details

Klassifizierung Payload
Masse 305.00 kg
Trockenmasse 290.00 kg
Gesamtmasse 305.00 kg
Länge 0.20 m
Durchmesser 2.80 m
Spannweite 9.00 m
Form Box + pan
Hersteller SPXS
Bus-Typ Starlink
Phasenstatus In Orbit
Besitzer/Staat SPXS/US

Große Konstellationen

Loading constellations...